Location: Dattensoll
(49.9928°N, 9.8954°E)
Time: 07:35:12
(UTC+00:00)

DELTA 2 DEB (DPAF) - Pass Details

Date: 19 May 2025
Orbit: 538 x 548 km, 98.4° (Epoch: 22 June)

Event Time Altitude Azimuth Distance (km) Brightness Sun altitude
Rises 21:05:18 0° 19° (NNE) 2,731 8.0 -14.2°
Maximum altitude 21:11:19 45° 100° (E) 749 4.2 -14.7°
Enters shadow 21:13:03 27° 157° (SSE) 1,062 4.7 -14.9°
